TimeHST,TemperatureF,Dew PointF,Humidity,Sea Level PressureIn,VisibilityMPH,Wind Direction,Wind SpeedMPH,Gust SpeedMPH,PrecipitationIn,Events,Conditions,WindDirDegrees,DateUTC
12:53 AM,78.1,62.1,58,30.02,10.0,SSE,6.9,-,N/A,,Clear,160,2013-09-10 10:53:00
1:53 AM,77.0,63.0,62,30.00,10.0,ENE,8.1,-,N/A,,Clear,70,2013-09-10 11:53:00
2:53 AM,77.0,59.0,54,29.99,10.0,ENE,4.6,-,N/A,,Clear,70,2013-09-10 12:53:00
3:53 AM,75.0,63.0,66,29.98,10.0,East,4.6,-,N/A,,Clear,100,2013-09-10 13:53:00
4:53 AM,75.9,62.1,62,29.99,10.0,Calm,Calm,-,N/A,,Clear,0,2013-09-10 14:53:00
5:53 AM,75.0,62.1,64,29.99,10.0,ESE,6.9,-,N/A,,Clear,120,2013-09-10 15:53:00
6:53 AM,75.0,62.1,64,30.00,10.0,NE,4.6,-,N/A,,Clear,40,2013-09-10 16:53:00
7:53 AM,80.1,64.9,60,30.00,10.0,Calm,Calm,-,N/A,,Clear,0,2013-09-10 17:53:00
8:53 AM,82.0,66.9,60,30.02,10.0,WSW,5.8,-,N/A,,Clear,240,2013-09-10 18:53:00
9:53 AM,84.0,68.0,58,30.02,10.0,SSW,12.7,-,N/A,,Clear,200,2013-09-10 19:53:00
10:53 AM,84.9,66.0,53,30.01,10.0,South,10.4,-,N/A,,Clear,190,2013-09-10 20:53:00
11:53 AM,84.0,69.1,61,30.00,10.0,SSW,12.7,-,N/A,,Clear,200,2013-09-10 21:53:00
12:53 PM,86.0,68.0,55,29.99,10.0,SSW,13.8,-,N/A,,Mostly Cloudy,200,2013-09-10 22:53:00
1:53 PM,84.9,68.0,57,29.97,10.0,SSW,10.4,-,N/A,,Partly Cloudy,200,2013-09-10 23:53:00
2:53 PM,86.0,69.1,57,29.96,10.0,SW,9.2,-,N/A,,Partly Cloudy,220,2013-09-11 00:53:00
3:53 PM,84.9,66.9,55,29.95,10.0,SW,10.4,-,N/A,,Partly Cloudy,230,2013-09-11 01:53:00
4:53 PM,82.9,66.0,56,29.95,10.0,SW,6.9,-,N/A,,Clear,230,2013-09-11 02:53:00
5:53 PM,82.9,64.9,54,29.96,10.0,South,5.8,-,N/A,,Clear,190,2013-09-11 03:53:00
6:53 PM,82.0,64.9,56,29.99,10.0,SSW,4.6,-,N/A,,Clear,200,2013-09-11 04:53:00
7:53 PM,81.0,66.0,60,30.01,10.0,SSE,4.6,-,N/A,,Clear,160,2013-09-11 05:53:00
8:53 PM,82.0,63.0,52,30.04,10.0,Variable,5.8,-,N/A,,Scattered Clouds,0,2013-09-11 06:53:00
9:53 PM,80.1,66.0,62,30.04,10.0,East,3.5,-,N/A,,Clear,90,2013-09-11 07:53:00
10:53 PM,80.1,66.0,62,30.04,10.0,Calm,Calm,-,N/A,,Clear,0,2013-09-11 08:53:00
11:53 PM,78.1,64.9,64,30.03,10.0,ENE,5.8,-,N/A,,Clear,60,2013-09-11 09:53:00